STARLINK-3089, 49166

Orbit data source: Space-Track

STARLINK-3089, 49166 is a payload satellite owned by SpaceX/Seattle (US) in LEO that was launched on Tue, 14 Sep 2021 UTC via an FALCON 9 launch vehicle from the Air Force Western Test Range (AFWTR). Payload-class satellites include a variety of spacecraft equipped with specific instruments for various scientific and technological missions. These include communications satellites like Starlink; space stations such as the ISS; scientific satellites like the Hubble; Earth observation satellites from companies like Planet Labs, Umbra, and HawkEye 360; GPS; miniature CubeSats for education and research; and military/defense satellites.

Loading next visibility...
Identifier
49166, 2021-082AN
Orbit
LEO
Country
Flag of USUS
Related business
Manufacturer
SpaceX/Seattle
Mission
Operational Commercial Communications
Bus & Motor
STARLINK, Unknown motor
Mass
297 kg wet, ~275 kg dry
Launch date (UTC)
2021-09-14 (4 years ago)
Launch vehicle
FALCON 9
Launch site
Air Force Western Test Range (AFWTR)
Object type
Payload
Rocket body
Debris
Shape & HBR
Box + 1 Pan, 10.1 m
Radar Cross Section
13.562 m², Large (>1 m²)

Expand to show TLE details & history
Last TLE update: 21 hours ago

TLE from 21 hours ago
0 STARLINK-3089
1 49166U 21082AN  26071.71575939  .00000235  00000-0  27963-4 0  9992
2 49166  69.9982 267.6228 0002447 267.2409  92.8470 14.97521390248107
Epoch: 2026-03-12T17:10Z
TLE epoch observation values (Epoch: 2026-03-12T17:10:41.611Z)
Latitude
0.00003°
Longitude
-160.41223°
Altitude
577.065 km
Speed
7.572 km/s
True Right ascension
17h 50m 29s
True Declination
0° 00' 00"
Sunlit
Object was in daylight at epoch
Visualization orbit readout
Latitude
Unknown
Longitude
Unknown
Altitude
Unknown
Speed
Unknown
Apparent Right ascension
Unknown
Apparent Declination
Unknown
Sunlit
N/A
Visualization observer readout
Local Sidereal Time
18:22:07
Azimuth
Unknown
Elevation
Unknown
Doppler factor
Unknown
Orbital elements
Apogee altitude
574.208 km
Perigee altitude
570.806 km
Semi-major axis
6,950.644 km
Eccentricity
0.00024
Inclination
69.9982°
RAAN
267.6228°
Arg. of periapsis
267.2409°
True anomaly
92.87501°
Mean anomaly
92.847°
Eccentric anomaly
92.861°
Mean motion
3.74546 °/min
Orbital period
96.12 mins
BSTAR
0.000027963
Loading maneuver chart data...
Computing Atmospheric mass density...

Documentation

Showing up to 5 results
|